Location: Beloeil
(45.5670°N, 73.2000°W)
Time: 22:36:06
(UTC-04:00)

Daily predictions for brighter satellites

Satellite Brightness Start Highest point End
(mag) Time Altitude Azimuth Time Altitude Azimuth Time Altitude Azimuth
Cosmos 1934 Rocket 4.3 20:05:44 10° SSE 20:11:31 46° E 20:17:25 10° NNE
Meteor 1-11 Rocket 3.8 20:06:47 10° S 20:12:24 88° W 20:17:58 10° N
FENGYUN 3A 3.7 20:07:35 10° SSE 20:12:54 75° ENE 20:18:16 10° N
ERS-1 Rocket 3.9 20:09:08 10° SE 20:13:31 32° ENE 20:17:56 10° N
Cosmos 2297 Rocket 3.2 20:09:05 10° N 20:14:06 31° NE 20:19:07 10° ESE
Okean 2 3.7 20:11:02 10° N 20:15:08 50° ENE 20:19:10 10° SSE
EO 1 Delta rocket 4.1 20:13:17 10° NNE 20:17:45 47° E 20:22:34 10° S
NOSS 2-1 (E) 3.7 20:19:19 10° SSW 20:23:02 43° ESE 20:27:19 10° NE
USA 186 1.6 20:20:37 10° SSE 20:23:46 69° ENE 20:26:44 10° N
OTV 4 2.2 20:23:34 10° SW 20:25:46 19° S 20:27:58 10° SE
Cosmos 1461 3.5 20:22:10 10° NNW 20:26:05 40° NE 20:29:47 10° ESE
Cosmos 1975 4.2 20:25:11 10° SE 20:28:21 22° E 20:31:32 10° NE
Cosmos 2219 4.3 20:29:01 10° NW 20:34:20 45° WSW 20:39:38 10° S
Cosmos 1777 Rocket 4.2 20:29:44 10° NNW 20:35:00 80° WSW 20:40:16 10° SSE
Lacrosse 5 rocket 1.8 20:35:07 10° NW 20:38:43 41° NNE 20:41:40 13° E
Cosmos 1544 Rocket 3.5 20:35:24 10° S 20:39:45 82° E 20:44:12 10° N
Cosmos 1315 Rocket 4.0 20:37:19 10° SSW 20:41:11 48° WNW 20:45:08 10° N
Meteor 2-4 Rocket 4.4 20:38:06 10° NNW 20:43:49 62° W 20:49:37 10° S
Cosmos 2208 Rocket 4.1 20:39:00 10° S 20:44:10 55° ESE 20:49:26 10° NNE
USA 215 4.0 20:39:30 10° E 20:45:40 46° NNE 20:51:51 10° NW
Cosmos 1821 Rocket 4.2 20:43:33 10° SSW 20:49:40 77° W 20:55:47 10° N
ATLAS CENTAUR R/B 3.2 20:45:55 10° WSW 20:50:42 42° NW 20:55:21 10° NNE
Cosmos 1605 Rocket 4.0 20:46:08 10° S 20:52:25 68° E 20:58:40 10° NNE
Cosmos 2278 3.8 20:49:06 10° S 20:54:37 55° ESE 21:00:10 10° NNE
ALOS 3.6 20:51:37 10° SSW 20:56:01 41° W 21:00:27 10° NNW
Cosmos 1939 Rocket 3.0 20:53:26 13° SSE 20:57:03 59° ENE 21:01:10 10° N
Cosmos 1697 Rocket 3.8 20:54:01 12° SSE 20:57:47 22° E 21:02:03 10° NE
NOSS 3-4 (A) 4.0 20:52:19 10° NW 20:59:17 75° SW 21:06:10 12° SSE
NOSS 3-4 (C) 4.0 20:52:25 10° NW 20:59:24 76° SW 21:06:15 12° SSE
Lacrosse 5 2.9 20:55:17 10° NW 21:00:00 37° NNE 21:03:50 15° E
YAOGAN 6 3.9 21:00:20 20° ESE 21:01:42 25° ENE 21:04:44 10° NNE
H-2A R/B 4.4 20:58:38 10° SSW 21:02:11 35° W 21:05:49 10° NNW
H-2A R/B 3.9 21:00:34 11° E 21:02:37 14° ENE 21:05:00 10° NNE
Cosmos 1570 Rocket 4.0 20:58:45 10° SSW 21:04:03 86° ESE 21:09:22 10° NNE
NOSS 7 (D) 4.5 21:01:44 10° SSW 21:05:03 50° SE 21:08:22 10° NE
Cosmos 2369 3.7 21:01:31 10° S 21:07:05 62° ESE 21:12:43 10° NNE
SPOT 5 3.4 21:03:41 18° SE 21:07:10 46° ENE 21:11:50 10° N
YAOGAN 11 4.3 21:03:04 10° S 21:07:37 77° WSW 21:12:07 10° NNW
Envisat 2.9 21:08:02 14° SSE 21:12:29 78° ENE 21:17:36 10° N
DELTA 2 R/B (1) 4.0 21:10:14 10° WSW 21:15:31 46° S 21:18:27 24° SE
Cosmos 1937 Rocket 4.2 21:10:41 10° N 21:15:38 40° ENE 21:18:15 24° ESE
Cosmos 2150 Rocket 4.2 21:11:55 10° NNW 21:16:58 52° ENE 21:19:45 25° SE
Cosmos 1980 Rocket 3.4 21:19:03 20° E 21:19:03 20° E 21:23:03 10° NE
Cosmos 1825 Rocket 4.3 21:15:39 10° N 21:19:45 35° ENE 21:21:11 28° ESE
SPOT 1/Viking Rocket 4.3 21:18:19 24° ESE 21:20:48 38° ENE 21:25:35 10° N
Cosmos 1346 Rocket 4.4 21:19:27 10° NNW 21:23:01 34° W 21:26:37 10° SSW
RESURS DK-1 3.4 21:19:22 10° N 21:23:06 32° NE 21:24:26 26° E
Cosmos 1953 Rocket 4.5 21:23:19 10° N 21:27:17 31° ENE 21:28:16 29° E
ARGOS 3.7 21:26:41 27° ESE 21:29:02 41° ENE 21:34:04 10° N
Cosmos 972 Rocket 4.5 21:25:01 10° NNW 21:30:40 61° ENE 21:34:03 27° SE
deb Chang Zheng 4 3.5 21:27:49 10° NNE 21:32:17 71° ESE 21:35:52 16° S
H-2A R/B 1.9 21:32:16 27° S 21:34:27 82° WSW 21:38:36 10° NNW
Iridium 4 Rocket 3.9 21:32:06 10° N 21:37:22 60° W 21:42:08 10° SSW
Cosmos 1626 Rocket 4.3 21:33:18 10° NNW 21:37:36 51° W 21:41:11 14° SSW
ASTEX 1 3.6 21:33:24 10° NNE 21:38:17 51° E 21:40:10 34° SSE
Cosmos 1459 Rocket 3.9 21:36:29 18° S 21:41:01 65° E 21:47:03 10° NNE
Cosmos 2227 Rocket 3.1 21:36:53 10° NW 21:42:16 45° WSW 21:46:32 16° S
CZ-4B R/B 3.9 21:40:36 10° NNE 21:44:58 35° E 21:45:03 35° E
SL-24 R/B - RUBIN 2 4.4 21:39:21 10° SSW 21:45:08 59° ESE 21:51:31 10° NE
Tiangong 1 2.0 21:42:54 10° WSW 21:45:06 37° SW 21:45:06 37° SW
NOSS 7 (H) 4.3 21:43:30 10° SW 21:46:44 86° NW 21:50:19 10° NE
Cosmos 1758 Rocket 4.0 21:42:39 10° N 21:46:49 41° ENE 21:47:17 40° E
Cosmos 2263 Rocket 4.1 21:43:37 10° N 21:47:03 16° NE 21:49:27 13° ENE
Cosmos 1898 Rocket 3.5 21:42:38 10° NNW 21:47:59 84° WSW 21:50:22 34° SSE
Cosmos 2322 Rocket 4.3 21:51:53 10° ENE 21:51:53 10° ENE 21:51:55 10° ENE
PSLV R/B 3.1 21:49:47 77° N 21:49:47 77° N 21:52:38 10° NNW
Nimbus 7 Rocket 4.4 21:43:32 10° NNE 21:49:37 89° ESE 21:55:42 10° SSW
CZ-4 SHROUD 3.3 21:50:47 68° NNE 21:50:47 68° NNE 21:53:35 10° N
Cosmos 1500 3.5 21:50:01 25° SSW 21:52:03 65° W 21:55:49 10° N
ERS-1 Rocket 4.3 21:47:38 10° SSW 21:52:13 35° W 21:56:50 10° NNW
MetOp-B 4.1 21:49:40 30° S 21:52:27 83° WSW 21:57:51 10° NNW
Terra 2.8 21:56:54 29° ENE 21:57:21 30° ENE 22:01:29 10° N
Cosmos 1802 Rocket 4.0 21:54:07 23° S 21:58:19 76° E 22:04:46 10° NNE
Cosmos 2297 Rocket 3.0 21:52:56 10° NW 21:58:20 46° WSW 22:01:34 23° S
Cosmos 2228 4.5 22:03:20 23° ENE 22:03:20 23° ENE 22:05:40 10° NNE
Cosmos 1656 3.6 21:57:14 10° SSW 22:02:52 86° WNW 22:08:28 10° NNE
SL-08 RB Rocket 3.7 22:02:59 55° ESE 22:03:48 66° ENE 22:08:25 10° N
Cosmos 1763 Rocket 3.9 22:05:17 41° E 22:05:17 41° E 22:09:34 10° NE
Cosmos 2058 Rocket 3.6 22:06:48 44° ENE 22:06:48 44° ENE 22:10:41 10° NNE
SL-08 R/B 4.5 22:05:44 39° SSE 22:08:01 64° E 22:14:09 10° NNE
Cosmos 1340 2.5 22:04:17 10° N 22:08:04 88° NW 22:08:04 88° NW
Cosmos 468 Rocket 4.0 22:09:55 19° SSW 22:13:39 80° WNW 22:18:49 10° NNE
IGS 5A 4.5 22:15:22 33° NE 22:15:22 33° NE 22:18:38 10° N
Lacrosse 5 rocket 2.6 22:14:36 10° WNW 22:17:23 27° WSW 22:17:23 27° WSW
Cosmos 1814 Rocket 4.0 22:16:31 27° SSW 22:19:31 85° WNW 22:24:52 10° NNE
Cosmos 1743 3.3 22:19:32 50° WSW 22:20:07 56° W 22:24:00 10° N
Cosmos 1606 Rocket 3.6 22:21:42 68° SW 22:22:11 79° W 22:26:38 10° N
Cosmos 2016 Rocket 3.9 22:19:13 33° S 22:22:11 86° W 22:28:25 10° N
Cosmos 841 Rocket 3.7 22:24:03 53° E 22:24:03 53° E 22:28:40 10° NNE
Cosmos 2084 4.0 22:20:40 10° NW 22:24:26 47° WSW 22:24:26 47° WSW
USA 215 3.2 22:26:30 49° SSE 22:28:28 76° SW 22:35:02 10° NW
Cosmos 1842 3.7 22:28:41 10° NNW 22:31:58 59° NNW 22:31:58 59° NNW
CARTOSAT-1 3.9 22:33:30 57° NNE 22:33:30 57° NNE 22:37:14 10° N
YAOGAN 6 4.5 22:34:50 24° WSW 22:35:12 24° W 22:38:17 10° NW
Milstar 3 Cent rocket 4.5 22:23:17 10° WSW 22:36:17 30° SSW 22:38:09 28° S
GEOS 3 Rocket 3.5 22:33:46 10° NE 22:38:55 85° NW 22:41:24 32° SW
Meteor 2-5 Rocket 4.3 22:34:01 10° N 22:39:40 43° ENE 22:39:52 43° ENE
Cosmos 1697 Rocket 3.2 22:35:42 10° SW 22:41:17 59° WNW 22:46:53 10° NNE
H-2A R/B 1.8 22:41:13 86° SSE 22:41:20 90° ENE 22:46:20 10° NNW
Meteor 1-15 Rocket 4.2 22:41:03 68° SSE 22:41:47 79° E 22:47:42 10° NNE
SL-16 R/B 3.5 22:44:19 26° ENE 22:44:19 26° ENE 22:47:14 10° NE
Tsikada Rocket 4.0 22:36:44 10° N 22:43:12 82° W 22:44:43 55° S
Lacrosse 5 2.1 22:38:13 10° NW 22:43:01 60° WSW 22:43:01 60° WSW
Cosmos 2098 Rocket 4.2 22:42:50 38° SSW 22:45:48 78° W 22:51:57 10° N
Cosmos 1726 Rocket 4.2 22:47:06 49° W 22:47:20 50° WNW 22:51:38 10° N
Cosmos 1864 Rocket 4.4 22:47:51 54° SSW 22:49:19 81° W 22:55:29 10° N
Cosmos 967 Rocket 4.5 22:48:12 10° NW 22:54:31 67° WSW 22:55:14 62° SSW
Cosmos 372 Rocket 4.4 22:53:15 10° NNW 22:57:48 53° NE 22:57:48 53° NE
RESURS DK-1 4.2 22:57:35 10° NW 23:00:21 25° W 23:00:21 25° W
Cosmos 1980 Rocket 2.5 23:00:44 44° WSW 23:02:25 65° WNW 23:08:07 10° NNE
Cosmos 2360 Rocket 4.3 23:06:24 14° ENE 23:06:24 14° ENE 23:07:26 10° NE
GP-B 4.1 23:06:48 10° N 23:09:54 44° N 23:09:54 44° N
Meteor 1-24 Rocket 4.3 23:09:34 10° N 23:15:05 49° ENE 23:15:05 49° ENE
Cosmos 2346 Rocket 4.5 23:20:04 10° NNW 23:26:18 72° W 23:26:25 72° WSW
Cosmos 2263 Rocket 2.4 23:26:21 10° NNW 23:31:08 64° N 23:31:08 64° N
Cosmos 2322 Rocket 2.6 23:33:39 57° NNE 23:33:39 57° NNE 23:38:05 10° NNE
Terra 3.2 23:35:48 32° WNW 23:35:48 32° WNW 23:39:21 10° NNW
Cosmos 1125 Rocket 4.5 23:31:15 10° NNW 23:35:17 40° WNW 23:35:17 40° WNW
